Date String (YYYY-MM-DD hh:mm:ss) UTC,Instrument flags,absolute air pressure of the measurement (hPa),sample flow rate (lpm),inlet stack bypass flow (lpm),air temperature of the measurement (°C),ambient temperature measured by the external sensor (°C),aerosol sample conditioner tube jacket temperature (°C),OPC LED temperature (°C),internal box temperature (°C),relative humidity of the measurement (%),span deviation,mass concentration of particles derived from Lorenz-Mie calculation of OPC scattering (μg/m³),mass concentration of particles derived from Lorenz-Mie calculation of OPC scattering (μg/m³),mass concentration of particles derived from Lorenz-Mie calculation of OPC scattering (μg/m³)
DateTimeUTC,F1_M11,P_M11,Q1_M11,Q2_M11,T1_M11,T2_M11,T3_M11,T4_M11,T5_M11,U1_M11,ZSPAN_M11,X0_M11,X2_M11,X1_M11
2023-12-15 19:00:00,SystemResetWarning,0835.6,5.00,000.00,021.9,021.3,000.0,030.0,023.3,14.4,0000.0,0005.36,0002.76,0002.37
2023-12-15 19:01:00,SystemResetWarning,0835.5,5.00,000.00,021.9,021.3,000.0,030.0,023.3,14.2,0000.0,0005.71,0002.80,0002.42
2023-12-15 19:02:00,SystemResetWarning,0835.5,5.00,000.00,022.0,021.3,000.0,030.0,023.3,14.3,0000.0,0006.12,0002.86,0002.47
2023-12-15 19:03:00,SystemResetWarning,0835.6,5.01,000.00,022.0,021.4,000.0,030.0,023.4,14.3,0000.0,0006.21,0002.92,0002.53
2023-12-15 19:04:00,SystemResetWarning,0835.5,5.00,000.00,022.0,021.4,000.0,030.1,023.4,14.3,0000.0,0006.42,0002.99,0002.57
2023-12-15 19:05:00,SystemResetWarning,0835.5,4.99,000.00,022.0,021.4,000.0,030.1,023.4,14.2,0000.0,0006.45,0003.02,0002.61
2023-12-15 19:06:00,SystemResetWarning,0835.4,4.99,000.00,022.0,021.4,000.0,030.1,023.4,14.2,0000.0,0006.43,0003.07,0002.67
2023-12-15 19:07:00,SystemResetWarning,0835.4,5.01,000.00,022.0,021.4,000.0,030.1,023.4,14.5,0000.0,0006.50,0003.11,0002.72
2023-12-15 19:08:00,SystemResetWarning,0835.3,5.01,000.00,022.1,021.4,000.0,030.1,023.5,14.2,0000.0,0006.43,0003.11,0002.76
2023-12-15 19:09:00,SystemResetWarning,0835.3,4.99,000.00,022.1,021.5,000.0,030.1,023.5,14.1,0000.0,0006.43,0003.12,0002.77
2023-12-15 19:10:00,SystemResetWarning,0835.3,5.00,000.00,022.1,021.5,000.0,030.2,023.5,14.5,0000.0,0006.37,0003.13,0002.78
2023-12-15 19:11:00,SystemResetWarning,0835.5,5.00,000.00,022.1,021.5,000.0,030.2,023.5,14.3,0000.0,0006.35,0003.13,0002.77
2023-12-15 19:12:00,SystemResetWarning,0835.3,5.01,000.00,022.1,021.5,000.0,030.2,023.5,13.9,0000.0,0006.15,0003.12,0002.74
2023-12-15 19:13:00,SystemResetWarning,0835.3,5.00,000.00,022.1,021.5,000.0,030.2,023.5,13.4,0000.0,0005.27,0003.07,0002.70
2023-12-15 19:14:00,SystemResetWarning,0835.4,5.00,000.00,022.2,021.5,000.0,030.2,023.5,13.3,0000.0,0005.21,0003.02,0002.65
2023-12-15 19:15:00,SystemResetWarning,0835.3,4.99,000.00,022.2,021.6,000.0,030.2,023.6,13.2,0000.0,0004.99,0002.93,0002.60
2023-12-15 19:16:00,SystemResetWarning,0835.4,4.99,000.00,022.2,021.6,000.0,030.3,023.6,13.5,0000.0,0005.00,0002.91,0002.55
2023-12-15 19:17:00,SystemResetWarning,0835.4,5.00,000.00,022.2,021.6,000.0,030.3,023.6,13.5,0000.0,0004.98,0002.87,0002.48
2023-12-15 19:18:00,SystemResetWarning,0835.4,5.01,000.00,022.2,021.6,000.0,030.3,023.6,13.2,0000.0,0004.94,0002.83,0002.44
2023-12-15 19:19:00,SystemResetWarning,0835.4,5.00,000.00,022.2,021.6,000.0,030.3,023.6,13.3,0000.0,0004.98,0002.79,0002.38
2023-12-15 19:20:00,SystemResetWarning,0835.4,5.00,000.00,022.2,021.6,000.0,030.3,023.7,13.0,0000.0,0003.98,0002.71,0002.32
2023-12-15 19:21:00,SystemResetWarning,0835.4,4.99,000.00,022.3,021.6,000.0,030.3,023.7,13.3,0000.0,0003.55,0002.62,0002.26
2023-12-15 19:22:00,SystemResetWarning,0835.5,5.00,000.00,022.3,021.6,000.0,030.3,023.7,13.2,0000.0,0003.46,0002.56,0002.21
2023-12-15 19:23:00,SystemResetWarning,0835.5,4.99,000.00,022.3,021.6,000.0,030.4,023.7,12.9,0000.0,0003.51,0002.48,0002.16
2023-12-15 19:24:00,SystemResetWarning,0835.2,5.01,000.00,022.3,021.6,000.0,030.4,023.7,12.7,0000.0,0003.68,0002.45,0002.12
2023-12-15 19:25:00,SystemResetWarning,0835.3,5.01,000.00,022.3,021.6,000.0,030.4,023.7,12.7,0000.0,0003.60,0002.41,0002.08
2023-12-15 19:26:00,SystemResetWarning,0835.3,5.01,000.00,022.3,021.6,000.0,030.4,023.7,12.9,0000.0,0003.59,0002.39,0002.06
2023-12-15 19:27:00,SystemResetWarning,0835.2,5.01,000.00,022.3,021.6,000.0,030.4,023.7,12.8,0000.0,0003.51,0002.36,0002.06
2023-12-15 19:28:00,SystemResetWarning,0835.1,4.99,000.00,022.3,021.6,000.0,030.4,023.7,12.7,0000.0,0003.52,0002.33,0002.05
2023-12-15 19:29:00,SystemResetWarning,0835.2,4.99,000.00,022.3,021.6,000.0,030.4,023.7,12.4,0000.0,0003.56,0002.33,0002.03
2023-12-15 19:30:00,SystemResetWarning,0835.1,5.00,000.00,022.3,021.6,000.0,030.5,023.7,12.6,0000.0,0003.44,0002.28,0002.01
2023-12-15 19:31:00,SystemResetWarning,0835.1,5.01,000.00,022.3,021.6,000.0,030.5,023.7,12.9,0000.0,0003.41,0002.26,0002.00
2023-12-15 19:32:00,SystemResetWarning,0835.2,5.00,000.00,022.3,021.5,000.0,030.5,023.7,13.7,0000.0,0004.10,0002.23,0001.96
2023-12-15 19:33:00,SystemResetWarning,0835.1,4.98,000.00,022.3,021.5,000.0,030.5,023.6,14.1,0000.0,0004.15,0002.22,0001.95
2023-12-15 19:34:00,SystemResetWarning,0835.2,5.01,000.00,022.3,021.5,000.0,030.5,023.6,14.2,0000.0,0003.90,0002.22,0001.96
2023-12-15 19:35:00,SystemResetWarning,0835.1,5.01,000.00,022.3,021.5,000.0,030.5,023.6,13.9,0000.0,0003.91,0002.28,0002.01
2023-12-15 19:36:00,SystemResetWarning,0835.1,5.00,000.00,022.3,021.5,000.0,030.5,023.6,14.0,0000.0,0004.49,0002.33,0002.05
2023-12-15 19:37:00,SystemResetWarning,0835.1,4.99,000.00,022.3,021.5,000.0,030.5,023.6,14.1,0000.0,0004.88,0002.39,0002.11
2023-12-15 19:38:00,SystemResetWarning,0835.1,4.99,000.00,022.3,021.5,000.0,030.5,023.5,14.3,0000.0,0004.91,0002.44,0002.16
2023-12-15 19:39:00,SystemResetWarning,0835.2,4.99,000.00,022.2,021.5,000.0,030.5,023.5,13.8,0000.0,0004.85,0002.48,0002.22
2023-12-15 19:40:00,SystemResetWarning,0835.1,5.00,000.00,022.2,021.4,000.0,030.5,023.5,14.0,0000.0,0004.83,0002.51,0002.28
2023-12-15 19:41:00,SystemResetWarning,0835.1,5.00,000.00,022.2,021.4,000.0,030.5,023.5,14.0,0000.0,0004.98,0002.61,0002.33
2023-12-15 19:42:00,SystemResetWarning,0835.2,5.01,000.00,022.2,021.4,000.0,030.5,023.6,14.0,0000.0,0005.12,0002.70,0002.40
2023-12-15 19:43:00,SystemResetWarning,0835.1,5.00,000.00,022.2,021.4,000.0,030.5,023.5,14.0,0000.0,0004.59,0002.80,0002.49
2023-12-15 19:44:00,SystemResetWarning,0835.1,5.00,000.00,022.2,021.4,000.0,030.5,023.6,13.3,0000.0,0006.03,0002.91,0002.59
2023-12-15 19:45:00,SystemResetWarning,0835.1,5.01,000.00,022.2,021.4,000.0,030.5,023.6,13.7,0000.0,0006.36,0003.01,0002.68
2023-12-15 19:46:00,SystemResetWarning,0835.0,5.00,000.00,022.2,021.4,000.0,030.5,023.6,13.6,0000.0,0006.92,0003.05,0002.71
2023-12-15 19:47:00,SystemResetWarning,0835.1,5.01,000.00,022.3,021.4,000.0,030.5,023.6,13.3,0000.0,0006.52,0003.05,0002.71
2023-12-15 19:48:00,SystemResetWarning,0835.1,5.00,000.00,022.3,021.5,000.0,030.5,023.6,13.2,0000.0,0006.11,0003.01,0002.69
2023-12-15 19:49:00,SystemResetWarning,0835.1,5.00,000.00,022.3,021.5,000.0,030.5,023.6,12.9,0000.0,0006.27,0003.00,0002.66
2023-12-15 19:50:00,SystemResetWarning,0835.1,4.99,000.00,022.3,021.5,000.0,030.5,023.6,12.7,0000.0,0006.29,0002.97,0002.62
2023-12-15 19:51:00,SystemResetWarning,0835.0,4.99,000.00,022.3,021.5,000.0,030.5,023.7,12.3,0000.0,0006.24,0002.92,0002.58
2023-12-15 19:52:00,SystemResetWarning,0835.0,5.01,000.00,022.3,021.5,000.0,030.5,023.7,12.7,0000.0,0006.16,0002.86,0002.55
2023-12-15 19:53:00,SystemResetWarning,0835.0,5.01,000.00,022.3,021.5,000.0,030.5,023.7,12.8,0000.0,0006.07,0002.79,0002.50
2023-12-15 19:54:00,SystemResetWarning,0835.0,4.99,000.00,022.4,021.6,000.0,030.5,023.7,12.4,0000.0,0006.05,0002.75,0002.44
2023-12-15 19:55:00,SystemResetWarning,0835.0,4.99,000.00,022.4,021.6,000.0,030.5,023.8,13.0,0000.0,0004.68,0002.71,0002.41
2023-12-15 19:56:00,SystemResetWarning,0835.0,5.00,000.00,022.4,021.6,000.0,030.5,023.8,12.0,0000.0,0004.38,0002.68,0002.38
2023-12-15 19:57:00,SystemResetWarning,0835.0,5.01,000.00,022.4,021.6,000.0,030.6,023.8,13.3,0000.0,0003.79,0002.64,0002.36
2023-12-15 19:58:00,SystemResetWarning,0835.0,5.00,000.00,022.4,021.6,000.0,030.6,023.8,13.9,0000.0,0003.69,0002.69,0002.39
2023-12-15 19:59:00,SystemResetWarning,0835.0,5.00,000.00,022.4,021.7,000.0,030.6,023.8,14.1,0000.0,0003.66,0002.67,0002.36
